﻿CC-Weather Eclipse 2012-11-13
Chip Nr:,    2, 1, 3, 5, RTC
Th. Calib:, 0.27, -0.36, 0.58, -0.56, 0.44
LuxFact: 0.003350
MagSum: 18.562000
WindFact: 0.130000
RTC Temp: 20.25  Err. : 0.44
Eclipse
Time UTC,T2 [°C],,T3 [°C],T5 [°C],RTC [°C],Brightness [Lux],TSL-Level,Rel. Hum. [%],Wind Speed [m/s]
2012-11-13 17:30:28,24.1,,23.2,22.0,23.6,0.0100,5,80,0.0
2012-11-13 17:33:05,24.3,,23.3,21.9,23.3,0.0469,5,80,0.0
2012-11-13 18:56:40,22.8,,21.9,21.5,23.1,0.4556,5,88,0.0
2012-11-13 19:01:38,22.1,,21.2,21.4,22.8,6.633,4,92,0.0
2012-11-13 19:02:21,22.1,,21.1,21.4,22.3,1.340,5,91,0.1
2012-11-13 19:07:20,23.6,,22.5,21.4,22.3,3.665,5,84,1.2
2012-11-13 19:07:40,23.5,,22.5,21.4,22.3,3.976,5,86,0.0
2012-11-13 19:12:41,22.2,,21.4,21.4,23.3,15.48,4,93,1.8
2012-11-13 19:17:41,21.2,,20.6,21.3,23.6,68.11,4,96,0.8
2012-11-13 19:22:41,21.1,,20.4,21.2,23.3,259.6,3,97,1.7
2012-11-13 19:27:41,21.0,,20.2,21.1,22.8,450,3,97,2.5
2012-11-13 19:32:40,20.9,,20.2,21.0,22.3,650,2,98,0.0
2012-11-13 19:37:40,20.9,,20.4,21.0,21.3,791,2,98,0.0
2012-11-13 19:39:35,21.0,,20.5,21.0,21.3,961,2,98,0.0
2012-11-13 19:44:37,21.2,,20.8,21.0,21.1,1712,2,97,1.8
2012-11-13 19:44:39,21.2,,20.9,21.1,21.1,1715,2,97,1.0
2012-11-13 19:45:09,21.2,,20.9,21.0,22.1,1742,2,97,0.6
2012-11-13 19:45:39,21.2,,20.9,21.1,22.1,1786,2,97,0.6
2012-11-13 19:46:09,21.2,,20.9,21.1,22.1,1906,2,97,0.0
2012-11-13 19:46:39,21.3,,20.9,21.1,22.1,2107,2,97,0.6
2012-11-13 19:47:09,21.3,,20.9,21.1,22.1,2348,2,95,0.4
2012-11-13 19:47:39,21.4,,21.0,21.1,22.1,2573,2,95,0.0
2012-11-13 19:48:09,21.4,,21.0,21.1,22.1,2750,2,95,0.0
2012-11-13 19:48:39,21.5,,21.0,21.1,22.1,2908,2,94,0.1
2012-11-13 19:49:09,21.5,,21.0,21.1,22.6,3002,2,94,0.0
2012-11-13 19:49:39,21.7,,21.2,21.1,22.6,3072,2,93,1.9
2012-11-13 19:50:09,21.8,,21.2,21.1,22.6,3095,2,92,1.3
2012-11-13 19:50:39,21.8,,21.2,21.1,22.6,2981,2,94,1.0
2012-11-13 19:51:09,21.7,,21.1,21.1,22.6,3048,2,95,0.4
2012-11-13 19:51:39,21.7,,21.2,21.1,22.6,3115,2,95,0.0
2012-11-13 19:52:09,21.7,,21.1,21.1,22.6,3216,2,94,0.0
2012-11-13 19:52:39,21.7,,21.1,21.1,22.6,3327,2,94,0.9
2012-11-13 19:53:09,21.9,,21.4,21.1,22.6,3544,2,93,4.3
2012-11-13 19:53:39,22.0,,21.5,21.1,22.8,3628,2,91,0.9
2012-11-13 19:54:09,22.2,,21.6,21.1,22.8,3715,2,91,1.2
2012-11-13 19:54:39,22.3,,21.6,21.1,22.8,3839,2,90,1.2
2012-11-13 19:55:09,22.3,,21.6,21.2,22.8,3980,2,92,0.6
2012-11-13 19:55:39,22.2,,21.6,21.2,22.8,4120,2,94,0.0
2012-11-13 19:56:09,22.2,,21.5,21.2,22.8,4335,2,94,0.0
2012-11-13 19:56:39,22.1,,21.5,21.2,22.8,4600,2,93,1.2
2012-11-13 19:57:09,22.0,,21.5,21.2,22.8,4918,2,95,1.0
2012-11-13 19:57:39,22.0,,21.5,21.2,23.3,5223,2,94,0.8
2012-11-13 19:58:09,21.9,,21.4,21.2,23.3,5534,2,94,0.4
2012-11-13 19:58:39,21.9,,21.4,21.2,23.3,5732,2,95,1.3
2012-11-13 19:59:09,21.8,,21.4,21.2,23.3,5876,2,96,1.2
2012-11-13 19:59:39,21.8,,21.4,21.2,23.3,6020,2,96,0.6
2012-11-13 20:00:09,21.8,,21.4,21.2,23.3,6264,2,96,0.0
2012-11-13 20:00:39,21.7,,21.5,21.2,23.3,6656,2,96,0.4
2012-11-13 20:01:09,21.7,,21.4,21.2,23.3,7169,2,96,2.2
2012-11-13 20:01:39,21.7,,21.4,21.2,23.3,7762,2,97,1.8
2012-11-13 20:02:09,21.6,,21.4,21.2,23.3,8422,2,98,1.0
2012-11-13 20:02:39,21.6,,21.4,21.2,23.3,9269,2,98,0.8
2012-11-13 20:03:09,21.5,,21.4,21.2,23.3,10057,2,97,1.6
2012-11-13 20:03:39,21.6,,21.4,21.3,23.3,10586,1,97,1.7
2012-11-13 20:04:09,21.6,,21.5,21.3,23.3,11156,1,98,0.5
2012-11-13 20:04:39,21.6,,21.4,21.3,23.3,11424,1,97,1.7
2012-11-13 20:05:09,21.6,,21.5,21.3,23.3,11658,1,97,0.9
2012-11-13 20:05:39,21.7,,21.5,21.3,23.3,11859,1,96,1.6
2012-11-13 20:06:09,21.7,,21.5,21.3,23.3,11859,1,96,0.8
2012-11-13 20:06:39,21.7,,21.6,21.3,23.3,11692,1,96,2.5
2012-11-13 20:07:09,21.7,,21.7,21.3,23.3,11524,1,96,1.3
2012-11-13 20:07:39,21.7,,21.7,21.3,23.3,11189,1,96,1.7
2012-11-13 20:08:09,21.7,,21.7,21.3,23.3,10620,1,96,2.3
2012-11-13 20:08:39,21.7,,21.7,21.4,23.3,9983,1,96,0.9
2012-11-13 20:09:09,21.7,,21.7,21.4,23.3,9414,1,95,1.0
2012-11-13 20:09:39,21.9,,21.8,21.4,23.3,8978,1,94,4.7
2012-11-13 20:10:09,22.5,,22.1,21.4,23.3,8777,1,85,3.5
2012-11-13 20:10:39,23.2,,22.4,21.4,23.6,8543,1,84,5.8
2012-11-13 20:11:09,23.6,,22.6,21.4,23.6,8208,1,81,4.3
2012-11-13 20:11:39,23.9,,22.8,21.4,23.6,7806,1,83,2.9
2012-11-13 20:12:09,24.1,,22.9,21.4,23.6,7504,1,81,5.5
2012-11-13 20:12:39,24.2,,23.0,21.4,23.6,7069,1,83,1.9
2012-11-13 20:13:09,24.0,,22.9,21.5,23.6,6633,1,85,2.2
2012-11-13 20:13:39,23.7,,22.7,21.5,23.6,6332,1,88,1.9
2012-11-13 20:14:09,23.5,,22.5,21.5,23.6,5963,1,85,1.6
2012-11-13 20:14:39,23.4,,22.5,21.5,24.3,5662,1,85,2.6
2012-11-13 20:15:09,23.3,,22.4,21.5,24.3,5729,1,86,0.8
2012-11-13 20:15:39,23.2,,22.3,21.5,24.3,5628,1,87,1.3
2012-11-13 20:16:09,23.1,,22.2,21.5,24.3,5561,1,88,0.8
2012-11-13 20:16:39,23.0,,22.2,21.5,24.3,5528,1,88,0.0
2012-11-13 20:17:09,23.0,,22.2,21.5,24.3,5427,1,87,0.5
2012-11-13 20:17:39,23.1,,22.2,21.5,24.3,5394,1,88,1.4
2012-11-13 20:18:09,23.0,,22.2,21.5,24.3,5293,1,87,1.8
2012-11-13 20:18:39,23.0,,22.2,21.5,24.3,5193,1,87,3.5
2012-11-13 20:19:09,23.2,,22.2,21.5,24.6,5126,1,85,1.8
2012-11-13 20:19:39,23.3,,22.3,21.5,24.6,5059,1,80,3.2
2012-11-13 20:20:09,23.4,,22.4,21.5,24.6,5193,1,85,1.7
2012-11-13 20:20:39,23.4,,22.3,21.5,24.6,5796,1,84,2.3
2012-11-13 20:21:09,23.4,,22.3,21.5,24.6,6566,1,85,1.3
2012-11-13 20:21:39,23.3,,22.3,21.5,24.6,6466,1,87,1.3
2012-11-13 20:22:09,23.1,,22.2,21.5,24.6,7035,1,89,1.2
2012-11-13 20:22:39,23.0,,22.2,21.5,24.6,9916,1,89,0.4
2012-11-13 20:23:09,22.8,,22.1,21.5,24.6,8174,1,90,1.4
2012-11-13 20:23:39,22.7,,22.0,21.5,24.6,5260,1,89,1.6
2012-11-13 20:24:09,22.7,,22.0,21.5,24.6,4734,2,91,0.1
2012-11-13 20:24:39,22.6,,21.9,21.5,24.6,4492,2,91,1.8
2012-11-13 20:25:09,22.4,,21.8,21.4,24.6,4137,2,92,1.8
2012-11-13 20:25:39,22.3,,21.8,21.4,24.6,3822,2,93,0.5
2012-11-13 20:26:09,22.2,,21.7,21.4,24.6,3524,2,93,0.0
2012-11-13 20:26:39,22.2,,21.6,21.4,24.6,3260,2,93,0.0
2012-11-13 20:27:09,22.1,,21.5,21.4,24.6,3032,2,93,0.1
2012-11-13 20:27:39,22.0,,21.5,21.4,24.6,2834,2,94,0.6
2012-11-13 20:28:09,22.0,,21.4,21.4,24.6,2727,2,95,0.4
2012-11-13 20:28:23,22.0,,21.4,21.4,24.6,2650,2,95,0.4
2012-11-13 20:28:43,21.9,,21.3,21.4,24.6,2566,2,95,0.0
2012-11-13 20:29:03,21.9,,21.3,21.4,24.6,2476,2,95,0.5
2012-11-13 20:29:23,21.8,,21.2,21.4,24.6,2385,2,93,1.7
2012-11-13 20:29:43,21.7,,21.2,21.4,24.6,2311,2,96,4.2
2012-11-13 20:30:03,21.7,,21.2,21.4,24.6,2251,2,92,1.6
2012-11-13 20:30:23,21.9,,21.2,21.4,24.6,2198,2,91,1.7
2012-11-13 20:30:43,21.9,,21.2,21.4,24.6,2191,2,93,1.3
2012-11-13 20:31:03,21.9,,21.2,21.4,24.6,2590,2,93,0.6
2012-11-13 20:31:23,21.9,,21.2,21.4,24.6,3159,2,93,1.6
2012-11-13 20:31:43,21.9,,21.2,21.4,24.3,2077,2,94,8519.5
2012-11-13 20:32:03,21.9,,21.2,21.4,24.3,1765,2,94,1.0
2012-11-13 20:32:23,21.9,,21.2,21.4,24.3,1655,2,95,0.6
2012-11-13 20:32:43,21.9,,21.2,21.4,24.3,1574,2,95,0.9
2012-11-13 20:33:03,21.9,,21.1,21.4,24.3,1427,2,95,1.3
2012-11-13 20:33:25,21.8,,21.1,21.4,24.3,1280,2,95,1.3
2012-11-13 20:33:45,21.8,,21.1,21.4,24.3,1159,2,95,1.2
2012-11-13 20:34:05,21.7,,21.0,21.3,24.3,1018,2,96,0.3
2012-11-13 20:34:25,21.7,,21.0,21.3,24.3,921,2,96,0.0
2012-11-13 20:34:45,21.7,,21.0,21.3,24.3,827,2,96,0.0
2012-11-13 20:35:05,21.7,,21.0,21.3,24.3,727,2,95,0.0
2012-11-13 20:35:25,21.7,,21.0,21.3,24.3,623,2,95,0.0
2012-11-13 20:35:45,21.7,,20.9,21.3,24.3,536,2,95,0.0
2012-11-13 20:36:05,21.7,,20.9,21.3,24.3,437,3,94,0.8
2012-11-13 20:36:23,21.7,,20.9,21.3,24.3,362,3,93,0.6
2012-11-13 20:36:33,21.8,,20.9,21.3,24.3,320,3,94,0.6
2012-11-13 20:36:45,21.9,,21.0,21.3,24.3,286.1,3,93,2.7
2012-11-13 20:36:55,22.0,,21.0,21.3,24.3,252.6,3,92,1.4
2012-11-13 20:37:05,22.0,,21.0,21.3,24.3,243.5,3,91,0.4
2012-11-13 20:37:15,22.0,,21.0,21.3,24.3,219.8,3,90,0.3
2012-11-13 20:37:25,22.1,,21.1,21.3,24.3,143.4,3,90,0.1
2012-11-13 20:37:35,22.2,,21.1,21.3,24.3,83.1,3,90,0.0
2012-11-13 20:37:45,22.2,,21.2,21.3,24.3,48.24,3,90,0.0
2012-11-13 20:38:06,22.3,,21.2,21.3,24.3,6.398,4,90,2.9
2012-11-13 20:38:26,22.4,,21.4,21.3,24.3,3.608,5,89,7.3
2012-11-13 20:38:45,22.7,,21.6,21.3,24.3,4.412,5,85,8.6
2012-11-13 20:38:55,22.9,,21.8,21.3,24.3,4.131,5,83,7.1
2012-11-13 20:39:07,23.2,,22.0,21.3,24.3,4.047,5,86,5.6
2012-11-13 20:39:17,23.3,,22.0,21.3,24.3,4.100,5,84,6.4
2012-11-13 20:39:27,23.5,,22.2,21.3,24.3,4.218,5,84,5.6
2012-11-13 20:39:39,23.6,,22.3,21.3,24.3,3.464,5,83,8.7
2012-11-13 20:39:50,23.7,,22.4,21.3,24.3,3.832,5,82,6.0
2012-11-13 20:40:01,23.9,,22.5,21.3,24.3,5.678,5,82,6.8
2012-11-13 20:40:11,24.0,,22.6,21.3,24.1,7.668,5,84,4.5
2012-11-13 20:40:49,23.9,,22.7,21.3,24.1,96.7,4,84,2.3
2012-11-13 20:40:59,23.9,,22.6,21.3,24.1,139.7,3,82,1.6
2012-11-13 20:41:09,23.9,,22.6,21.3,24.1,190.3,3,84,2.1
2012-11-13 20:41:19,23.8,,22.6,21.3,24.1,244.5,3,85,2.6
2012-11-13 20:41:29,23.7,,22.5,21.3,24.1,310,3,85,2.1
2012-11-13 20:41:46,23.7,,22.5,21.3,24.1,371,3,86,2.6
2012-11-13 20:41:56,23.6,,22.5,21.3,24.1,445,3,87,1.9
2012-11-13 20:42:06,23.5,,22.5,21.3,24.1,626,3,86,2.1
2012-11-13 20:42:16,23.5,,22.5,21.3,24.1,975,3,85,1.0
2012-11-13 20:42:26,23.5,,22.5,21.3,24.1,936,3,87,2.9
2012-11-13 20:42:27,23.5,,22.5,21.3,24.1,928,3,87,2.9
2012-11-13 20:42:47,23.6,,22.5,21.3,24.1,1028,2,88,5.6
2012-11-13 20:43:07,23.7,,22.6,21.3,24.1,861,2,86,5.3
2012-11-13 20:43:29,23.9,,22.7,21.3,24.1,955,2,83,2.7
2012-11-13 20:43:49,23.9,,22.7,21.3,24.1,1055,2,83,4.4
2012-11-13 20:44:09,23.9,,22.7,21.3,24.1,1209,2,83,3.9
2012-11-13 20:44:29,24.0,,22.8,21.3,24.6,1384,2,83,2.7
2012-11-13 20:44:49,24.0,,22.8,21.3,24.6,1544,2,82,2.1
2012-11-13 20:45:09,24.0,,22.8,21.3,24.6,1759,2,83,2.2
2012-11-13 20:45:29,24.0,,22.8,21.3,24.6,1966,2,83,1.2
2012-11-13 20:45:49,24.0,,22.9,21.3,24.6,2208,2,83,1.2
2012-11-13 20:46:09,23.9,,22.8,21.3,24.6,2466,2,84,1.8
2012-11-13 20:46:29,23.9,,22.9,21.3,24.6,2663,2,84,2.7
2012-11-13 20:46:49,24.0,,22.9,21.3,24.6,2834,2,85,6.2
2012-11-13 20:47:09,24.2,,23.0,21.3,24.6,2995,2,85,9.1
2012-11-13 20:47:29,24.3,,23.2,21.4,24.6,3152,2,84,7.4
2012-11-13 20:47:49,24.4,,23.4,21.4,24.6,3266,2,82,7.9
2012-11-13 20:48:09,24.5,,23.5,21.4,24.6,3380,2,86,7.7
2012-11-13 20:48:29,24.5,,23.5,21.4,24.6,3474,2,81,4.3
2012-11-13 20:48:49,24.5,,23.5,21.4,24.8,3538,2,80,4.5
2012-11-13 20:49:09,24.5,,23.5,21.4,24.8,3648,2,82,3.8
2012-11-13 20:49:29,24.4,,23.4,21.4,24.8,3799,2,82,5.8
2012-11-13 20:49:49,24.4,,23.4,21.4,24.8,3893,2,80,6.6
2012-11-13 20:50:09,24.4,,23.4,21.4,24.8,3976,2,81,5.3
2012-11-13 20:50:27,24.5,,23.4,21.4,24.8,4064,2,84,3.1
2012-11-13 20:50:57,24.4,,23.4,21.4,24.8,4154,2,81,1.7
2012-11-13 20:51:27,24.4,,23.3,21.4,24.8,4211,2,80,0.9
2012-11-13 20:51:57,24.2,,23.2,21.4,24.8,4275,2,81,0.5
2012-11-13 20:52:27,24.2,,23.2,21.4,24.8,4177,2,81,1.8
2012-11-13 20:52:57,24.1,,23.2,21.4,25.3,4268,2,83,0.9
2012-11-13 20:53:27,24.0,,23.2,21.4,25.3,4576,2,84,1.7
2012-11-13 20:53:57,24.0,,23.1,21.4,25.3,4700,2,82,0.4
2012-11-13 20:54:27,23.9,,23.0,21.4,25.3,4941,2,84,2.3
2012-11-13 20:54:57,23.9,,23.1,21.4,25.3,5270,2,83,1.9
2012-11-13 20:55:29,23.9,,23.0,21.4,25.3,5581,2,83,2.6
2012-11-13 20:55:59,24.0,,23.1,21.5,25.3,5963,2,82,2.3
2012-11-13 20:56:29,24.0,,23.0,21.5,25.3,6405,2,81,1.7
2012-11-13 20:56:59,24.1,,23.1,21.5,25.3,6764,2,83,4.5
2012-11-13 20:57:29,24.1,,23.2,21.5,25.3,7182,2,81,2.2
2012-11-13 20:57:59,24.1,,23.2,21.5,25.3,8489,2,84,4.7
2012-11-13 20:58:29,24.2,,23.3,21.5,25.3,9045,1,83,5.8
2012-11-13 20:58:59,24.3,,23.4,21.5,25.3,8141,1,82,6.9
2012-11-13 20:59:29,24.4,,23.5,21.5,25.3,8978,1,80,5.1
2012-11-13 20:59:59,24.5,,23.6,21.5,25.3,9514,1,79,6.0
2012-11-13 21:00:29,24.5,,23.7,21.5,25.3,10218,1,80,4.5
2012-11-13 21:00:59,24.7,,23.7,21.5,25.3,10955,1,81,5.8
2012-11-13 21:01:29,24.7,,23.8,21.5,25.1,12027,1,82,6.2
2012-11-13 21:01:59,24.8,,23.9,21.5,25.1,12563,1,82,5.1
2012-11-13 21:02:29,24.7,,23.9,21.6,25.1,13166,1,81,2.9
2012-11-13 21:02:59,24.6,,23.9,21.6,25.1,13802,1,82,5.2
2012-11-13 21:03:29,24.7,,24.0,21.6,25.1,14874,1,80,4.8
2012-11-13 21:03:59,24.7,,24.1,21.6,25.1,16415,1,82,4.4
2012-11-13 21:04:29,24.9,,24.2,21.6,25.1,21005,1,81,6.0
2012-11-13 21:04:59,24.9,,24.3,21.7,25.1,31189,1,82,4.7
2012-11-13 21:05:29,25.0,,24.5,21.7,25.1,25159,1,81,5.1
2012-11-13 21:05:59,25.0,,24.6,21.7,25.6,29313,1,81,6.6
2012-11-13 21:06:29,25.2,,24.9,21.7,25.6,58391,1,82,6.9
2012-11-13 21:06:59,25.4,,25.2,21.8,25.6,60602,1,81,4.5
2012-11-13 21:07:29,25.5,,25.6,21.8,25.6,61205,1,78,7.0
2012-11-13 21:07:59,25.6,,25.8,21.8,25.6,61975,1,79,5.8
2012-11-13 21:08:29,25.7,,26.0,21.9,25.6,63047,1,77,6.1
2012-11-13 21:08:59,25.7,,26.0,21.9,25.6,62109,1,77,5.6
2012-11-13 21:09:29,25.8,,26.2,21.9,25.6,63885,1,76,6.9
2012-11-13 21:09:59,25.8,,26.2,22.0,25.6,64722,1,80,6.6
2012-11-13 21:10:29,25.9,,26.3,22.1,26.3,64689,1,77,8.2
2012-11-13 21:10:59,25.8,,26.2,22.1,26.3,65627,1,77,9.6
2012-11-13 21:11:29,25.8,,26.4,22.1,26.3,65895,1,78,7.9
2012-11-13 21:11:59,25.7,,26.4,22.2,26.3,64454,1,78,6.2
2012-11-13 21:12:29,25.7,,26.3,22.2,26.3,64186,1,77,9.0
2012-11-13 21:12:59,25.7,,26.2,22.3,26.3,65124,1,80,9.5
2012-11-13 21:13:29,25.7,,26.3,22.3,26.3,66900,1,84,6.9
2012-11-13 21:13:59,25.7,,26.2,22.4,26.3,67402,1,79,8.7
2012-11-13 21:14:29,25.7,,26.2,22.4,26.3,69111,1,79,10.4
2012-11-13 21:14:59,25.7,,26.4,22.5,26.3,69881,1,78,8.1
2012-11-13 21:15:29,25.7,,26.4,22.5,26.3,70216,1,78,7.1
2012-11-13 21:15:59,25.8,,26.4,22.5,26.3,71288,1,78,10.3
2012-11-13 21:16:29,25.8,,26.4,22.6,26.3,72126,1,79,9.1
2012-11-13 21:16:59,25.7,,26.2,22.6,26.3,73064,1,80,11.2
2012-11-13 21:17:29,25.7,,26.0,22.7,26.3,73667,1,79,8.6
2012-11-13 21:17:59,25.7,,26.1,22.7,26.3,74169,1,80,9.2
2012-11-13 21:18:29,25.7,,26.2,22.8,26.3,75007,1,78,9.7
2012-11-13 21:18:59,25.7,,26.2,22.8,26.1,75409,1,79,8.4
2012-11-13 21:19:29,25.7,,26.2,22.9,26.1,77318,1,77,10.7
2012-11-13 21:19:59,25.8,,26.4,22.9,26.1,77452,1,80,7.4
2012-11-13 21:20:29,25.9,,26.8,22.9,26.1,77385,1,77,7.7
2012-11-13 21:20:59,25.9,,26.9,23.0,26.1,78625,1,78,6.8
2012-11-13 21:21:29,26.0,,27.2,23.0,26.1,79295,1,80,6.2
2012-11-13 21:21:59,26.0,,27.1,23.1,26.1,80802,1,79,9.6
2012-11-13 21:22:29,26.0,,27.2,23.1,26.1,81338,1,79,6.0
2012-11-13 21:22:59,26.1,,27.5,23.2,26.6,83281,1,75,4.4
2012-11-13 21:23:29,26.2,,27.9,24.4,26.6,83583,1,75,6.5
2012-11-13 21:23:59,26.2,,27.9,26.0,26.6,84420,1,74,6.9
2012-11-13 21:24:29,26.1,,27.7,26.2,26.6,83750,1,78,7.3
2012-11-13 21:24:59,26.0,,27.6,27.0,26.6,87301,1,73,7.9
2012-11-13 21:25:29,26.0,,27.8,27.8,26.6,88239,1,78,6.9
2012-11-13 21:25:59,26.0,,27.9,28.2,26.6,88172,1,77,6.9
2012-11-13 21:26:29,26.1,,28.1,28.7,26.6,88641,1,77,4.5
2012-11-13 21:26:59,26.1,,28.3,29.2,26.6,89010,1,75,8.1
2012-11-13 21:27:29,26.1,,28.2,29.0,26.8,90618,1,68,7.3
2012-11-13 21:27:59,26.0,,27.9,28.8,26.8,90618,1,75,7.0
2012-11-13 21:28:29,26.0,,27.9,29.1,26.8,90752,1,77,6.2
2012-11-13 21:28:59,26.0,,28.0,29.4,26.8,90685,1,80,6.0
2012-11-13 21:29:29,25.9,,27.9,29.0,26.8,23852,1,74,7.1
2012-11-13 21:29:59,25.6,,27.4,27.6,26.8,21641,1,81,5.6
2012-11-13 21:30:29,25.5,,26.8,26.7,26.8,21742,1,81,6.2
2012-11-13 21:30:59,25.3,,26.3,26.1,26.8,23819,1,79,8.3
2012-11-13 21:31:29,25.2,,25.9,25.7,26.1,27135,1,78,6.9
2012-11-13 21:31:59,25.2,,25.8,25.6,26.1,33065,1,81,7.4
2012-11-13 21:32:29,25.2,,25.6,25.4,26.1,21072,1,82,4.5
2012-11-13 21:32:59,25.2,,25.5,25.3,26.1,19464,1,82,6.6
2012-11-13 21:33:29,25.1,,25.4,25.2,26.1,17621,1,84,7.4
2012-11-13 21:33:59,25.1,,25.4,25.1,26.1,22646,1,81,3.5
2012-11-13 21:34:29,25.2,,25.4,25.0,26.1,25259,1,82,7.4
2012-11-13 21:34:59,25.1,,25.3,24.9,26.1,27336,1,78,7.1
2012-11-13 21:35:29,25.1,,25.3,24.9,26.1,37520,1,82,7.0
2012-11-13 21:35:59,25.2,,25.5,24.8,25.8,38090,1,81,5.7
2012-11-13 21:36:29,25.3,,25.6,24.8,25.8,32797,1,83,5.2
2012-11-13 21:36:59,25.3,,25.7,24.7,25.8,33735,1,80,7.3
2012-11-13 21:37:29,25.3,,25.6,24.7,25.8,35008,1,80,5.8
2012-11-13 21:37:59,25.2,,25.7,24.6,25.8,36616,1,79,6.1
2012-11-13 21:38:29,25.3,,25.7,24.6,25.8,42143,1,80,7.3
2012-11-13 21:38:59,25.3,,25.7,24.6,25.8,41507,1,80,6.4
2012-11-13 21:39:29,25.4,,25.9,24.5,25.8,47436,1,80,6.2
2012-11-13 21:39:59,25.4,,25.9,24.5,25.6,47470,1,81,6.0
2012-11-13 21:40:29,25.5,,26.0,24.5,25.6,55409,1,78,7.8
2012-11-13 21:40:59,25.6,,26.2,24.5,25.6,122275,0,76,7.5
2012-11-13 21:41:29,25.9,,27.0,24.5,25.6,123615,0,77,6.2
2012-11-13 21:41:59,26.1,,27.7,24.5,25.6,131320,0,74,6.9
2012-11-13 21:42:29,26.3,,28.6,24.6,25.6,134670,0,76,6.0
2012-11-13 21:42:59,26.4,,29.2,24.6,25.6,130650,0,75,4.4
2012-11-13 21:43:29,26.5,,29.3,24.6,25.6,124620,0,75,3.6
2012-11-13 21:43:59,26.7,,29.4,24.7,25.6,125960,0,76,4.9
2012-11-13 21:44:29,26.7,,29.5,24.7,26.3,110885,0,76,6.0
2012-11-13 21:44:59,26.7,,29.6,25.1,26.3,69680,0,76,6.0
2012-11-13 21:45:29,26.4,,29.4,26.3,26.3,65660,0,74,6.2
2012-11-13 21:45:59,26.2,,29.0,27.0,26.3,79395,0,75,6.0
2012-11-13 21:46:29,26.2,,28.5,27.9,26.3,71355,0,79,6.4
2012-11-13 21:46:59,26.2,,28.5,28.9,26.3,111220,0,75,5.3
2012-11-13 21:47:29,26.2,,28.2,29.1,26.3,68005,0,78,6.6
2012-11-13 21:47:59,26.2,,28.2,29.4,26.3,84085,0,76,7.7
2012-11-13 21:48:29,26.2,,28.3,29.6,26.6,89110,0,79,5.2
2012-11-13 21:48:59,26.3,,28.4,29.9,26.6,82410,0,79,5.5
2012-11-13 21:49:29,26.3,,28.4,30.0,26.6,74035,0,76,6.1
2012-11-13 21:49:59,26.4,,,,26.6,106530,0,74,6.0
Weather
Time,T2,T1,T3,T5,RTC,Lux,Lev,RH%,WS[m/s]
2012-11-14 00:27:03,26.2,,25.7,25.9,26.1,12640,2,66,0.0
2012-11-14 00:27:44,26.7,,26.8,29.2,26.1,12362,1,136,0.0
2012-11-14 00:32:42,28.5,,28.4,28.8,26.8,8395,2,54,0.0
2012-11-14 00:37:42,28.0,,27.9,28.2,27.1,10151,1,55,0.0
2012-11-14 00:42:42,28.9,,28.3,28.7,27.6,10921,1,53,0.0
2012-11-14 00:47:42,29.4,,28.7,29.0,28.1,14037,1,55,0.0
2012-11-14 00:52:42,28.8,,28.4,28.5,28.6,7631,2,58,0.0
2012-11-14 00:57:42,28.3,,28.0,28.4,28.8,15276,1,55,0.0
2012-11-14 01:02:42,28.5,,28.5,28.3,28.8,11055,1,57,0.0
2012-11-14 01:07:42,28.5,,28.4,28.5,29.1,13568,1,58,0.0
2012-11-14 01:12:42,28.5,,28.5,28.8,29.1,12596,1,57,0.0
2012-11-14 01:17:42,28.6,,28.4,28.4,29.1,9179,2,56,0.0
2012-11-14 01:22:42,28.9,,28.4,28.2,29.3,7196,2,52,0.0
2012-11-14 01:27:42,28.9,,28.3,28.3,29.1,7336,2,53,0.0
2012-11-14 01:32:42,28.9,,28.2,28.2,29.1,6928,2,53,0.0
2012-11-14 01:37:42,28.8,,28.1,28.1,29.1,7012,2,53,0.0
2012-11-14 01:42:42,29.0,,28.3,28.2,29.1,7018,2,53,0.0
2012-11-14 01:47:42,28.8,,28.2,28.0,29.1,6318,2,54,0.0
2012-11-14 01:52:42,28.9,,28.1,27.9,29.1,6566,2,54,0.0
2012-11-14 01:57:42,28.5,,28.0,27.9,29.1,6573,2,55,0.0
2012-11-14 02:02:42,28.7,,28.1,28.1,29.1,6476,2,53,0.0
2012-11-14 02:07:42,28.9,,28.2,28.1,29.1,6331,2,53,0.0
2012-11-14 02:12:42,28.7,,28.0,28.0,29.1,6546,2,56,0.0
2012-11-14 02:17:42,28.4,,27.9,27.8,28.8,6589,2,56,0.0
2012-11-14 02:22:42,28.5,,27.9,27.9,28.8,6271,2,54,0.0
2012-11-14 02:27:42,28.7,,28.0,27.9,28.8,6335,2,53,0.0
2012-11-14 02:32:42,29.0,,28.2,28.2,28.8,6318,2,54,0.0
2012-11-14 02:37:42,29.0,,28.3,28.1,29.1,6342,2,52,0.0
2012-11-14 02:42:42,28.6,,28.0,28.0,29.1,6321,2,53,0.0
2012-11-14 02:47:42,28.7,,28.2,28.1,28.8,6295,2,53,0.0
2012-11-14 02:52:42,28.4,,28.0,27.9,28.8,6214,2,55,0.0
2012-11-14 02:55:41,28.5,,28.4,28.8,28.8,7953,2,56,0.0
2012-11-14 03:00:40,29.4,,30.5,31.5,28.6,8167,2,53,0.0
2012-11-14 03:05:40,29.4,,30.7,31.7,28.6,7795,2,51,0.0
2012-11-14 03:10:40,29.0,,29.4,28.9,28.8,7846,2,52,0.0
2012-11-14 03:15:40,29.0,,28.7,28.7,28.6,7842,2,54,0.0
2012-11-14 03:20:40,28.9,,28.6,28.7,28.6,7943,2,54,0.0
2012-11-14 03:25:40,29.2,,28.9,29.0,28.6,7966,2,56,0.0
